Location: Sungai Ketit
(2.6833°N, 113.2333°E)
Time: 21:12:25
(UTC+00:00)

Landsat 7 - Pass Details

Date: 23 May 2024
Orbit: 690 x 692 km, 97.9° (Epoch: 19 June)

Event Time Altitude Azimuth Distance (km) Brightness Sun altitude
Exits shadow 11:27:42 12° 153° (SSE) 1,987 5.7 -13.9°
Maximum altitude 11:31:51 52° 78° (ENE) 856 3.9 -14.9°
Drops below altitude 10° 11:36:24 10° 2° (N) 2,136 6.6 -15.9°
Sets 11:38:41 0° 357° (N) 3,049 7.5 -16.4°
